Regional Weather Roundup
Issued by NWS

Home | Current Version | Previous Version | Text Only | Print | Product List | Glossary On
Versions: 1 2 3 4 5 6 7 8 9 10 11 12 13 14 15 16 17 18 19 20 21 22 23 24 25 26 27 28 29 30 31 32 33 34 35 36 37 38 39 40 41 42 43 44 45 46 47 48 49 50
000
ASUS43 KLSX 051459
RWRMO

WEATHER SUMMARY FOR MISSOURI
NATIONAL WEATHER SERVICE SPRINGFIELD MO
1000 AM CDT SUN JUL 05 2015

NOTE: "FAIR" INDICATES FEW OR NO CLOUDS BELOW 12,000 FEET WITH NO
       SIGNIFICANT WEATHER AND/OR OBSTRUCTIONS TO VISIBILITY.
       CURRENT SKY AND/OR WEATHER CONDITIONS ARE NOT AVAILABLE FOR
       CHILLICOTHE AND FARMINGTON.

MOZ001>031-035>038-043-044-053-054-051600-
...NORTHERN AND WESTERN MISSOURI...

CITY           SKY/WX    TMP DP  RH WIND       PRES   REMARKS
KANSAS CTY INT PTSUNNY   78  71  79 S10       30.00F
KANSAS C DTWN  MOSUNNY   81  71  71 S6        29.98F
LEE`S SUMMIT   MOSUNNY   79  70  74 S8        30.01F
ST JOSEPH      PTSUNNY   78  70  76 S8        29.98F
CHILLICOTHE      N/A     78  71  79 S7        30.02S
KIRKSVILLE     SUNNY     78  70  76 S8        30.04F

$$
MOZ066>068-077>081-088>096-101>105-051600-
...SOUTHWEST MISSOURI...

CITY           SKY/WX    TMP DP  RH WIND       PRES   REMARKS
SPRINGFIELD    CLOUDY    77  71  82 S8        30.05F
JOPLIN         SUNNY     82  72  71 S9        30.03S

$$
MOZ032>034-039>042-045>050-055>058-069>072-051600-
...CENTRAL MISSOURI...

CITY           SKY/WX    TMP DP  RH WIND       PRES   REMARKS
COLUMBIA       MOSUNNY   78  72  81 S9        30.05F
JEFFERSON CITY PTSUNNY   75  69  81 S9        30.05F
ROLLA          MOSUNNY   74  69  85 S12       30.07R
SEDALIA        SUNNY     81  72  74 S8        30.04F
WHITEMAN AFB   MOSUNNY   80  73  80 S9        30.02S
OSAGE BEACH    CLOUDY    75  70  83 S8        30.05F

$$
MOZ051-052-059>065-051600-
...EAST CENTRAL MISSOURI...

CITY           SKY/WX    TMP DP  RH WIND       PRES   REMARKS
ST LOUIS INTL  MOSUNNY   81  67  62 SW6       30.08S
SPIRIT OF STL  SUNNY     79  70  74 CALM      30.06S
ST CHARLES     MOSUNNY   77  70  79 VRB3      30.06F HAZE

$$
MOZ072>076-082>087-097>100-106>115-051600-
...SOUTH CENTRAL AND SOUTHEAST MISSOURI...

CITY           SKY/WX    TMP DP  RH WIND       PRES   REMARKS
CAPE GIRARDEAU SUNNY     76  71  85 CALM      30.07S HAZE
FARMINGTON     SUNNY     72  70  94 S7        30.12F
POPLAR BLUFF   CLOUDY    72  71  97 CALM      30.06F FOG
WEST PLAINS    CLOUDY    74  68  81 SW5       30.10R

$$


USA.gov is the U.S. government's official web portal to all federal, state and local government web resources and services.